Location: Carbonear
(47.7333°N, 53.2500°W)
Time: 06:37:42
(UTC+00:00)

AO-27 - Pass Details

Date: 10 December 2022
Orbit: 784 x 798 km, 98.9° (Epoch: 28 January)

Event Time Altitude Azimuth Distance (km) Brightness Sun altitude
Exits shadow 21:30:59 15° 24° (NNE) 2,042 9.4 -17.6°
Drops below altitude 10° 21:32:20 10° 12° (NNE) 2,382 9.9 -17.8°
Sets 21:35:12 0° 357° (N) 3,317 10.8 -18.3°
